SCP
0 1 1 1 1 0 0 0 0 0 0 0 0 0 0 0 0 0 0 0 0 0 0 0 0 0 0 0 0 0 0 0 0 0 0 0 0 0
1 1 1 1 1 1 0 0 0 0 0 0 0 0 0 0 0 0 0 0 0 0 0 0 0 0 0 0 0 0 0 0 0 0 0 0 0 0
0 0 0 1 1 1 1 0 0 0 0 0 0 0 0 0 0 0 0 0 0 0 0 0 0 0 0 0 0 0 0 0 0 0 0 0 0 0
0 0 0 0 0 0 0 0 0 0 0 0 0 0 0 0 0 0 0 0 0 0 0 0 0 0 0 0 0 0 0 0 0 0 0 0 0 0
0 0 0 0 0 0 0 0 0 0 0 0 0 0 0 0 0 0 0 0 0 0 0 0 0 0 0 0 0 0 0 0 0 0 0 0 0 0
0 0 0 0 0 0 0 0 0 0 0 0 0 0 0 0 0 0 0 0 0 0 0 0 0 0 0 0 0 0 0 0 0 0 0 0 0 0
0 0 0 0 0 0 0 0 0 0 0 0 0 0 0 0 0 0 0 0 0 0 0 0 0 0 0 0 0 0 0 0 0 0 0 0 0 0
0 0 0 0 0 0 0 0 0 0 0 0 0 0 0 0 0 0 0 0 0 0 0 0 0 0 0 0 0 0 0 0 0 0 0 0 0 0
0 0 0 0 0 0 0 0 0 0 0 0 0 0 0 0 0 0 0 0 0 0 0 0 0 0 0 0 0 0 0 0 0 0 0 0 0 0
0 0 0 0 0 0 0 0 0 0 0 0 0 0 0 0 0 0 0 0 0 0 0 0 0 0 0 0 0 0 0 0 0 0 0 0 0 0
0 0 0 0 0 0 0 0 0 0 0 0 0 0 0 0 0 0 0 0 0 0 0 0 0 0 0 0 0 0 0 0 0 0 0 0 0 0
0 0 0 0 0 0 0 0 0 0 0 0 0 0 0 0 0 0 0 0 0 0 0 0 0 0 0 0 0 0 0 0 0 0 0 0 0 0
0 0 0 0 0 0 0 0 0 0 0 0 0 0 0 0 0 0 0 0 0 0 0 0 0 0 0 0 0 0 0 0 0 0 0 0 0 0
0 0 0 0 0 0 0 0 0 0 0 0 0 0 0 0 0 0 0 0 0 0 0 0 0 0 0 0 0 0 0 0 0 0 0 0 0 0
0 0 0 0 0 0 0 0 0 0 0 0 0 0 0 0 0 0 0 0 0 0 0 0 0 0 0 0 0 0 0 0 0 0 0 0 0 0
0 0 0 0 0 0 0 0 0 0 0 0 0 0 0 0 0 0 0 0 0 0 0 0 0 0 0 0 0 0 0 0 0 0 0 0 0 0
0 0 0 0 0 0 0 0 0 0 0 0 0 0 0 0 0 0 0 0 0 0 0 0 0 0 0 0 0 0 0 0 0 0 0 0 0 0
0 0 0 0 0 0 0 0 0 0 0 0 0 0 0 0 0 0 0 0 0 0 0 0 0 0 0 0 0 0 0 0 0 0 0 0 0 0
0 0 0 0 0 0 0 0 0 0 0 0 0 0 0 0 0 0 0 0 0 0 0 0 0 0 0 0 0 0 0 0 0 0 0 0 0 0
0 0 0 0 0 0 0 0 0 0 0 0 0 0 0 0 0 0 0 0 0 0 0 0 0 0 0 0 0 0 0 0 0 0 0 0 0 0
0 0 0 0 0 0 0 0 0 0 0 0 0 0 0 0 0 0 0 0 0 0 0 0 0 0 0 0 0 0 0 0 0 0 0 0 0 0
0 0 0 0 0 0 0 0 0 0 0 0 0 0 0 0 0 0 0 0 0 0 0 0 0 0 0 0 0 0 0 0 0 0 0 0 0 0
0 0 0 0 0 0 0 0 0 0 0 0 0 0 0 0 0 0 0 0 0 0 0 0 0 0 0 0 0 0 0 0 0 0 0 0 0 0
Wind_Speed
3 3 3 2 3 3 3 3 4 4 3 1 1 3 3 2 3 2 2 5 4 2 2 1 1 1 1 1 3 3 3 3 4 4 5 6 7 8
2 2 3 2 2 2 2 3 3 4 3 2 2 3 4 3 4 3 3 6 6 6 6 6 5 5 4 3 1 1 2 3 3 3 4 4 5 6
2 2 2 2 2 2 2 2 2 2 2 2 2 3 4 4 4 3 3 3 4 8 7 7 7 7 6 5 5 4 3 2 1 1 2 3 3 4
2 2 2 1 1 2 2 2 2 2 2 2 2 2 3 3 3 3 2 3 4 9 9 9 8 8 8 8 7 6 5 4 4 3 2 2 3 4
4 4 4 4 3 3 3 2 2 1 1 1 2 2 2 3 2 2 3 2 2 5 7 8 7 8 8 7 7 6 6 5 5 4 4 3 3 3
5 5 5 5 5 4 3 3 2 2 2 2 2 2 2 3 2 2 2 2 2 3 3 4 6 7 7 7 6 6 5 5 5 5 5 5 4 4
5 6 7 9 10 7 5 5 4 3 3 3 3 3 3 4 4 3 2 1 2 3 2 2 2 2 3 5 5 5 5 4 5 5 5 5 5 4
5 5 6 7 9 10 10 10 8 5 4 3 3 4 5 5 4 4 3 3 2 3 3 2 2 2 3 4 5 4 4 4 5 5 5 5 4 4
6 5 5 6 6 6 8 9 10 10 8 5 5 5 5 5 5 4 4 4 4 4 3 2 2 1 1 4 5 4 3 4 4 5 5 5 4 4
6 6 6 6 7 6 7 8 8 8 7 6 5 5 6 6 5 3 3 0 1 2 3 3 2 2 2 2 5 3 2 2 3 3 4 4 4 4
7 8 7 7 9 6 6 6 6 6 8 8 6 5 5 6 7 4 4 3 2 3 4 4 3 3 2 1 3 5 3 1 1 2 2 3 4 5
6 7 11 9 9 7 5 5 5 5 4 4 4 2 3 5 5 6 6 4 4 3 5 5 4 4 2 1 2 1 1 3 3 3 2 1 4 4
5 6 7 9 8 8 6 6 4 3 3 3 3 4 4 4 5 6 6 6 5 4 5 5 5 5 4 3 3 3 3 3 2 1 2 2 1 3
6 6 7 7 8 8 7 5 4 3 3 3 4 5 5 5 5 5 5 5 4 4 5 6 5 5 6 5 4 4 4 4 4 4 4 1 2 4
7 9 6 4 5 7 6 4 3 3 4 4 5 5 5 4 3 2 2 2 2 3 4 5 6 6 6 6 5 5 5 4 4 4 4 4 3 3
6 7 5 4 4 4 3 3 4 5 5 4 4 4 3 3 3 4 4 4 4 3 3 3 4 5 5 6 5 5 5 5 5 5 6 5 4 3
3 3 4 4 4 4 5 5 4 4 4 4 4 4 4 4 4 4 4 4 5 5 5 4 4 3 3 5 5 6 6 6 5 6 6 6 4 4
0 4 4 4 4 4 4 4 4 5 5 4 4 4 4 5 4 4 4 5 5 5 5 5 5 4 3 1 3 6 6 6 6 6 6 6 5 4
2 4 4 4 4 4 4 5 5 5 5 5 5 5 5 5 5 5 5 5 5 5 5 5 6 6 6 6 3 3 6 6 7 6 6 6 6 5
4 4 4 4 4 4 4 4 4 4 4 5 5 5 5 5 5 6 5 7 7 6 5 5 6 7 7 7 6 4 2 5 6 7 7 6 6 3
4 4 4 4 4 4 4 4 4 4 5 5 5 5 5 5 5 6 5 5 6 6 6 5 5 7 7 5 5 4 4 1 2 5 7 7 7 6
4 4 4 4 4 4 3 4 4 4 4 4 5 5 5 5 5 6 6 6 6 6 7 6 5 6 6 6 6 6 6 5 2 4 3 4 6 8
4 3 3 3 3 3 3 4 4 4 4 5 5 5 5 5 5 6 6 6 6 7 7 7 6 6 7 7 7 6 7 7 6 4 2 4 7 9
Wind_Direction
248 244 253 259 255 258 263 267 275 288 290 314 346 5 347 15 14 359 20 60 73 67 76 104 121 130 173 226 230 232 234 236 239 245 247 245 245 243
248 269 271 276 280 270 269 271 270 280 295 353 9 4 1 3 45 33 48 72 71 78 77 77 76 73 66 53 26 288 249 245 249 252 254 255 255 255
274 259 265 295 302 299 292 284 278 274 276 316 358 16 12 9 15 16 37 56 73 79 79 75 72 68 61 55 50 47 41 23 313 266 267 268 269 268
343 347 342 345 335 324 317 301 301 287 286 316 355 15 19 19 19 14 32 59 78 85 87 81 76 72 64 56 50 44 41 39 34 21 346 313 293 283
36 30 19 16 7 3 346 344 340 359 359 7 24 19 18 13 12 33 48 42 70 109 111 102 91 84 74 63 54 45 41 36 28 21 9 353 336 314
51 45 35 26 16 7 11 9 8 18 40 46 45 35 24 5 355 8 38 49 35 31 61 99 115 111 93 75 57 45 38 32 27 20 12 4 354 344
61 57 55 50 43 28 20 18 19 25 42 46 39 30 20 8 357 354 17 40 63 17 12 55 99 85 100 92 67 44 35 30 27 20 11 8 3 356
65 59 64 62 63 60 56 48 38 39 41 43 46 39 23 8 357 356 3 357 17 19 338 25 35 40 52 57 54 54 42 30 22 15 5 357 357 357
61 54 53 58 60 69 78 75 63 51 39 35 48 28 19 4 349 357 9 6 7 10 339 353 19 23 51 83 88 66 42 25 14 9 2 356 348 343
62 59 60 55 47 51 69 70 65 54 46 49 48 32 23 3 345 349 348 6 100 56 353 344 357 355 8 84 122 108 63 19 3 358 354 346 335 324
67 56 55 61 39 35 73 75 72 77 81 76 63 59 46 20 354 350 353 349 18 44 18 341 342 334 331 13 124 159 164 172 289 312 331 339 328 308
83 73 58 51 38 28 63 68 63 51 51 72 77 74 52 50 28 10 356 351 354 16 20 336 340 334 322 350 352 352 195 174 199 212 218 288 330 323
83 76 65 51 47 38 44 54 31 3 50 53 58 52 49 42 34 29 14 1 358 5 6 339 336 334 324 324 338 347 338 335 330 305 185 176 235 315
72 74 73 62 59 52 51 36 349 327 47 48 45 38 32 31 29 24 21 17 5 360 358 344 332 332 323 322 334 338 336 337 337 338 338 295 215 202
70 73 79 87 100 80 64 21 360 34 43 42 38 33 27 20 7 13 20 3 356 15 18 347 331 331 318 322 328 331 332 337 339 337 332 329 331 327
99 108 113 86 78 80 83 54 43 35 24 35 32 24 14 11 7 2 356 351 355 13 25 356 336 325 320 328 321 328 333 333 334 340 335 324 325 335
108 115 98 90 74 66 59 48 40 39 31 25 21 16 12 8 7 5 352 345 352 353 355 352 338 324 322 322 330 337 333 334 341 345 322 319 329 335
21 84 73 64 59 55 50 49 41 31 20 17 15 9 3 0 358 356 353 350 348 347 346 346 337 326 311 7 0 331 332 334 334 329 316 319 324 336
81 74 64 55 50 46 41 37 33 29 9 10 9 3 358 355 353 351 349 346 342 341 341 341 340 335 329 330 345 337 329 327 324 325 326 324 323 333
69 69 64 57 50 43 36 28 22 20 13 6 6 359 354 353 351 348 351 348 334 330 334 342 348 341 326 319 319 323 333 331 333 330 328 322 321 317
64 59 54 49 44 40 31 21 15 14 11 356 2 355 351 352 351 345 343 336 318 327 333 340 343 302 292 299 309 331 347 330 298 313 321 319 324 322
64 61 54 44 40 34 25 12 6 8 360 354 359 353 351 349 346 340 338 334 333 334 329 329 325 315 315 318 321 328 334 332 287 221 258 298 323 325
61 54 48 44 43 29 20 9 0 2 358 353 351 348 346 343 337 336 334 331 332 331 328 330 331 326 323 321 325 329 332 328 326 322 307 206 226 243